Regional Weather Roundup
Issued by NWS

Home | Current Version | Previous Version | Text Only | Print | Product List | Glossary Off
Versions: 1 2 3 4 5 6 7 8 9 10 11 12 13 14 15 16 17 18 19 20 21 22 23 24 25 26 27 28 29 30 31 32 33 34 35 36 37 38 39 40 41 42 43 44 45 46 47 48 49 50

000
ASUS43 KIND 251159
RWRIN

WEATHER ROUNDUP FOR INDIANA
NATIONAL WEATHER SERVICE INDIANAPOLIS IN
800 AM EDT SAT MAR 25 2017

NOTE: "FAIR" INDICATES FEW OR NO CLOUDS BELOW 12,000 FEET WITH NO
SIGNIFICANT WEATHER AND/OR OBSTRUCTIONS TO VISIBILITY.

* - STATION DOES NOT REPORT WEATHER SUCH AS PRECIPITATION OR FOG.

+ - STATION NOT QUALITY CONTROLLED BY THE NATIONAL WEATHER SERVICE.
    USE DATA WITH CAUTION...ESPECIALLY DEWPOINT AND RELATIVE
    HUMIDITY OBSERVATIONS.

INZ001>003-010>013-019-020-251300-
NORTHWEST INDIANA

CITY           SKY/WX    TMP DP  RH WIND       PRES   REMARKS
GARY /AIRPORT/ LGT RAIN  41  41 100 NW7       30.05R FOG
MONTICELLO +   CLOUDY    51  47  84 E3        30.00S
6HR MIN TEMP:  50; 6HR MAX TEMP:  62;


$$

LMZ046-743>745-251300-
SOUTHERN LAKE MICHIGAN

STATION/POSITION TIME  TEMP    WIND        PRES    WAVE
                       AIR SEA DIR/SP/G            HT
                 (UTC) (F)     (DEG/KT/KT) (MB)    (FT)
BURNS HARBOR     1140   39     280/  5/  6 1017.6S
MICHIGAN CITY    1130   42     110/  7/  9   N/A

$$

INZ004-005-014>016-021>024-251300-
NORTH CENTRAL INDIANA

CITY           SKY/WX    TMP DP  RH WIND       PRES   REMARKS
ELKHART        CLOUDY    48  46  93 NE8       30.07  FOG
GOSHEN         CLOUDY    54  49  83 NE8       30.06R HAZE
6HR MIN TEMP:  52; 6HR MAX TEMP:  58; 6HR PCP: TRACE;

SOUTH BEND     CLOUDY    47  47 100 NE5       30.06S FOG
6HR MIN TEMP:  42; 6HR MAX TEMP:  47; 6HR PCP:  0.10;


$$

INZ006>009-017-018-025>027-251300-
NORTHEAST INDIANA

CITY           SKY/WX    TMP DP  RH WIND       PRES   REMARKS
ANGOLA *+      PTCLDY    55  54  94 CALM      30.07R
FORT WAYNE     CLOUDY    56  51  84 CALM      30.06R
6HR MIN TEMP:  55; 6HR MAX TEMP:  58;

KENDALLVILLE + MOCLDY    55  52  89 SE5       30.07R

$$

INZ028-029-035-036-043>045-051>053-251300-
WEST CENTRAL INDIANA

CITY           SKY/WX    TMP DP  RH WIND       PRES   REMARKS
CRAWFORDSVL +  CLOUDY    57  53  87 SE9       30.00R
6HR MIN TEMP:  56; 6HR MAX TEMP:  62;

LAFAYETTE      CLOUDY    60  53  77 SE7       29.98S
6HR MIN TEMP:  59; 6HR MAX TEMP:  64;

TERRE HAUTE    CLOUDY    63  51  65 S14       29.97S
6HR MIN TEMP:  61; 6HR MAX TEMP:  64;


$$

INZ030>032-037>040-046>048-054>057-064-065-251300-
CENTRAL INDIANA

CITY           SKY/WX    TMP DP  RH WIND       PRES   REMARKS
CP ATTERBURY + PTCLDY    59  50  72 S9        30.06R
COLUMBUS       PTCLDY    59  50  72 S9        30.06S
INDIANAPOLIS   MOCLDY    60  52  74 SE9       30.03S
6HR MIN TEMP:  59; 6HR MAX TEMP:  63;

-EAGLE CREEK   MOCLDY    61  51  70 SE7       30.03S
6HR MIN TEMP:  58; 6HR MAX TEMP:  65;

KOKOMO +       CLOUDY    59  53  80 S12       30.04R
6HR MIN TEMP:  55; 6HR MAX TEMP:  63; 6HR PCP: TRACE;

SHELBYVILLE    CLOUDY    61  49  64 SE13      30.05S
6HR MIN TEMP:  61; 6HR MAX TEMP:  64;


$$

INZ033-034-041-042-049-050-058-059-251300-
EAST CENTRAL INDIANA

CITY           SKY/WX    TMP DP  RH WIND       PRES   REMARKS
MUNCIE         CLOUDY    63  51  65 S15       30.06R
6HR MIN TEMP:  62; 6HR MAX TEMP:  64;

RICHMOND +     CLOUDY    55  50  82 S13       30.11R

$$

INZ060-061-067>069-081>083-085>088-251300-
SOUTHWEST INDIANA

CITY           SKY/WX    TMP DP  RH WIND       PRES   REMARKS
EVANSVILLE     CLOUDY    64  53  67 S18G25    30.02R
6HR MIN TEMP:  62; 6HR MAX TEMP:  65;

HUNTINGBURG *+ CLOUDY    64  52  64 S10       30.03R
6HR MIN TEMP:  63; 6HR MAX TEMP:  65;


$$

INZ062-063-066-070>080-084-089>092-251300-
SOUTH CENTRAL AND SOUTHEAST INDIANA

CITY           SKY/WX    TMP DP  RH WIND       PRES   REMARKS
BLOOMINGTON    CLOUDY    60  49  66 SE10      30.02S
6HR MIN TEMP:  60; 6HR MAX TEMP:  63;

MADISON *+     PTCLDY    59  46  63 SE6       30.11S
SEYMOUR +      CLOUDY    59  48  67 SE8       30.06S

$$





USA.gov is the U.S. government's official web portal to all federal, state and local government web resources and services.